| time (UTC) | temp F | wind direction | speed MPH | gust MPH | rain 1hr in | rain 24hr in | rain mn in | humidity % | barometer mb |
| 20260510152502 | 76 | 227 | 9.0 | 15.0 | 0.00 | 0.00 | 0.00 | 41 | 1018.3 |
| 20260510152003 | 76 | 201 | 10.0 | 13.0 | 0.00 | 0.00 | 0.00 | 40 | 1018.4 |
| 20260510151502 | 76 | 241 | 5.0 | 9.0 | 0.00 | 0.00 | 0.00 | 39 | 1018.4 |
| 20260510151002 | 76 | 226 | 9.0 | 13.0 | 0.00 | 0.00 | 0.00 | 41 | 1018.4 |
| 20260510150503 | 76 | 187 | 7.0 | 10.0 | 0.00 | 0.00 | 0.00 | 40 | 1018.4 |
| 20260510145503 | 75 | 318 | 7.0 | 10.0 | 0.00 | 0.00 | 0.00 | 39 | 1018.4 |
| 20260510145003 | 75 | 28 | 7.0 | 10.0 | 0.00 | 0.00 | 0.00 | 39 | 1018.4 |
| 20260510144502 | 75 | 336 | 6.0 | 9.0 | 0.00 | 0.00 | 0.00 | 41 | 1018.4 |
| 20260510144003 | 74 | 203 | 5.0 | 10.0 | 0.00 | 0.00 | 0.00 | 42 | 1018.4 |
| 20260510143003 | 73 | 230 | 10.0 | 16.0 | 0.00 | 0.00 | 0.00 | 43 | 1018.4 |
| 20260510142003 | 72 | 335 | 8.0 | 9.0 | 0.00 | 0.00 | 0.00 | 45 | 1018.4 |
| 20260510141003 | 71 | 232 | 10.0 | 18.0 | 0.00 | 0.00 | 0.00 | 46 | 1018.4 |
| 20260510140503 | 71 | 234 | 9.0 | 13.0 | 0.00 | 0.00 | 0.00 | 46 | 1018.4 |
| 20260510135502 | 70 | 265 | 5.0 | 14.0 | 0.00 | 0.00 | 0.00 | 48 | 1018.7 |
| 20260510135003 | 69 | 208 | 8.0 | 14.0 | 0.00 | 0.00 | 0.00 | 49 | 1018.7 |
| 20260510134503 | 69 | 238 | 6.0 | 12.0 | 0.00 | 0.00 | 0.00 | 50 | 1018.7 |
| 20260510134004 | 68 | 235 | 9.0 | 12.0 | 0.00 | 0.00 | 0.00 | 52 | 1018.4 |
| 20260510133502 | 67 | 242 | 7.0 | 14.0 | 0.00 | 0.00 | 0.00 | 52 | 1018.4 |
| 20260510133002 | 67 | 222 | 7.0 | 14.0 | 0.00 | 0.00 | 0.00 | 52 | 1018.4 |
| 20260510132503 | 67 | 322 | 7.0 | 10.0 | 0.00 | 0.00 | 0.00 | 53 | 1018.6 |
| 20260510132003 | 66 | 223 | 8.0 | 16.0 | 0.00 | 0.00 | 0.00 | 54 | 1018.6 |
| 20260510131503 | 66 | 228 | 7.0 | 16.0 | 0.00 | 0.00 | 0.00 | 55 | 1018.4 |
| 20260510130503 | 65 | 247 | 8.0 | 13.0 | 0.00 | 0.00 | 0.00 | 54 | 1018.3 |
| 20260510130003 | 65 | 196 | 7.0 | 12.0 | 0.00 | 0.00 | 0.00 | 56 | 1018.2 |
| 20260510125503 | 64 | 259 | 7.0 | 12.0 | 0.00 | 0.00 | 0.00 | 57 | 1018.1 |
| 20260510125003 | 63 | 284 | 9.0 | 12.0 | 0.00 | 0.00 | 0.00 | 59 | 1018.1 |
| 20260510124503 | 62 | 231 | 6.0 | 12.0 | 0.00 | 0.00 | 0.00 | 61 | 1018.1 |
| 20260510123503 | 61 | 221 | 7.0 | 12.0 | 0.00 | 0.00 | 0.00 | 61 | 1017.9 |
| 20260510123003 | 60 | 233 | 7.0 | 12.0 | 0.00 | 0.00 | 0.00 | 62 | 1017.9 |
| 20260510122503 | 60 | 243 | 6.0 | 9.0 | 0.00 | 0.00 | 0.00 | 64 | 1017.9 |
| 20260510121502 | 59 | 235 | 8.0 | 12.0 | 0.00 | 0.00 | 0.00 | 66 | 1017.8 |
| 20260510121003 | 58 | 210 | 6.0 | 9.0 | 0.00 | 0.00 | 0.00 | 69 | 1017.8 |
| 20260510120503 | 57 | 215 | 6.0 | 10.0 | 0.00 | 0.00 | 0.00 | 70 | 1017.9 |
| 20260510120003 | 56 | 212 | 7.0 | 10.0 | 0.00 | 0.00 | 0.00 | 72 | 1017.8 |
| 20260510115504 | 55 | 298 | 4.0 | 10.0 | 0.00 | 0.00 | 0.00 | 74 | 1017.9 |
| 20260510115003 | 55 | 196 | 2.0 | 7.0 | 0.00 | 0.00 | 0.00 | 79 | 1017.8 |
| 20260510114503 | 55 | 86 | 1.0 | 3.0 | 0.00 | 0.00 | 0.00 | 78 | 1017.7 |
| 20260510114003 | 54 | 46 | 0.0 | 3.0 | 0.00 | 0.00 | 0.00 | 79 | 1017.6 |
| 20260510113503 | 54 | 205 | 1.0 | 5.0 | 0.00 | 0.00 | 0.00 | 78 | 1017.6 |
| 20260510113002 | 54 | 356 | 2.0 | 3.0 | 0.00 | 0.00 | 0.00 | 78 | 1017.6 |
| 20260510112503 | 54 | 88 | 2.0 | 5.0 | 0.00 | 0.00 | 0.00 | 77 | 1017.5 |
| 20260510112003 | 54 | 83 | 0.0 | 3.0 | 0.00 | 0.00 | 0.00 | 78 | 1017.4 |
| 20260510111503 | 53 | 92 | 0.0 | 0.0 | 0.00 | 0.00 | 0.00 | 78 | 1017.3 |
| 20260510111003 | 53 | 92 | 1.0 | 3.0 | 0.00 | 0.00 | 0.00 | 79 | 1017.2 |
| 20260510110503 | 52 | 13 | 1.0 | 2.0 | 0.00 | 0.00 | 0.00 | 79 | 1017.1 |
| 20260510105503 | 52 | 18 | 2.0 | 3.0 | 0.00 | 0.00 | 0.00 | 80 | 1016.9 |
| 20260510105003 | 52 | 29 | 3.0 | 3.0 | 0.00 | 0.00 | 0.00 | 79 | 1016.9 |
| 20260510104503 | 52 | 20 | 0.0 | 0.0 | 0.00 | 0.00 | 0.00 | 79 | 1016.8 |
| 20260510103503 | 52 | 20 | 2.0 | 9.0 | 0.00 | 0.00 | 0.00 | 79 | 1016.7 |
| 20260510103003 | 52 | 18 | 4.0 | 5.0 | 0.00 | 0.00 | 0.00 | 79 | 1016.5 |
| 20260510101502 | 52 | 37 | 5.0 | 6.0 | 0.00 | 0.00 | 0.00 | 79 | 1016.4 |
| 20260510101004 | 51 | 341 | 4.0 | 6.0 | 0.00 | 0.00 | 0.00 | 79 | 1016.3 |
| 20260510100503 | 51 | 67 | 4.0 | 8.0 | 0.00 | 0.00 | 0.00 | 79 | 1016.2 |
| 20260510100003 | 52 | 68 | 4.0 | 6.0 | 0.00 | 0.00 | 0.00 | 78 | 1016.2 |
| 20260510095503 | 52 | 39 | 3.0 | 6.0 | 0.00 | 0.00 | 0.00 | 78 | 1016.2 |
| 20260510095003 | 52 | 57 | 7.0 | 8.0 | 0.00 | 0.00 | 0.00 | 78 | 1016.1 |
| 20260510094003 | 53 | 76 | 4.0 | 8.0 | 0.00 | 0.00 | 0.00 | 76 | 1016.0 |
| 20260510093503 | 54 | 64 | 4.0 | 7.0 | 0.00 | 0.00 | 0.00 | 74 | 1016.0 |
| 20260510093004 | 54 | 82 | 4.0 | 7.0 | 0.00 | 0.00 | 0.00 | 74 | 1015.9 |
| 20260510092503 | 54 | 170 | 5.0 | 14.0 | 0.00 | 0.00 | 0.00 | 75 | 1015.8 |
| 20260510091503 | 53 | 74 | 5.0 | 13.0 | 0.00 | 0.00 | 0.00 | 78 | 1015.7 |
| 20260510091003 | 52 | 149 | 5.0 | 9.0 | 0.00 | 0.00 | 0.00 | 76 | 1015.7 |
| 20260510090003 | 54 | 49 | 6.0 | 8.0 | 0.00 | 0.00 | 0.00 | 74 | 1015.7 |
| 20260510085503 | 55 | 34 | 6.0 | 8.0 | 0.00 | 0.00 | 0.00 | 71 | 1015.7 |
| 20260510085003 | 56 | 0 | 6.0 | 10.0 | 0.00 | 0.00 | 0.00 | 71 | 1015.7 |
| 20260510084503 | 56 | 259 | 3.0 | 7.0 | 0.00 | 0.00 | 0.00 | 70 | 1015.6 |
| 20260510084003 | 56 | 60 | 5.0 | 12.0 | 0.00 | 0.00 | 0.00 | 72 | 1015.6 |
| 20260510083503 | 56 | 344 | 6.0 | 13.0 | 0.00 | 0.00 | 0.00 | 72 | 1015.6 |
| 20260510083003 | 55 | 34 | 4.0 | 9.0 | 0.00 | 0.00 | 0.00 | 72 | 1015.6 |
| 20260510082503 | 55 | 193 | 5.0 | 7.0 | 0.00 | 0.00 | 0.00 | 74 | 1015.6 |
| 20260510082003 | 55 | 75 | 4.0 | 13.0 | 0.00 | 0.00 | 0.00 | 74 | 1015.6 |
| 20260510081504 | 54 | 342 | 5.0 | 13.0 | 0.00 | 0.00 | 0.00 | 73 | 1015.5 |
| 20260510081003 | 55 | 38 | 5.0 | 7.0 | 0.00 | 0.00 | 0.00 | 72 | 1015.4 |
| 20260510080503 | 55 | 38 | 4.0 | 6.0 | 0.00 | 0.00 | 0.00 | 72 | 1015.4 |
| 20260510080003 | 55 | 343 | 5.0 | 9.0 | 0.00 | 0.00 | 0.00 | 74 | 1015.2 |
| 20260510075503 | 54 | 160 | 5.0 | 8.0 | 0.00 | 0.00 | 0.00 | 73 | 1015.2 |
| 20260510075003 | 54 | 70 | 5.0 | 9.0 | 0.00 | 0.00 | 0.00 | 72 | 1015.2 |
| 20260510074504 | 55 | 73 | 5.0 | 7.0 | 0.00 | 0.00 | 0.00 | 73 | 1015.2 |
| 20260510074003 | 55 | 355 | 5.0 | 9.0 | 0.00 | 0.00 | 0.00 | 71 | 1015.1 |
| 20260510073503 | 55 | 24 | 3.0 | 5.0 | 0.00 | 0.00 | 0.00 | 70 | 1015.0 |
| 20260510073003 | 55 | 117 | 2.0 | 6.0 | 0.00 | 0.00 | 0.00 | 71 | 1015.1 |
| 20260510072503 | 55 | 178 | 3.0 | 7.0 | 0.00 | 0.00 | 0.00 | 71 | 1015.1 |
| 20260510072004 | 55 | 203 | 4.0 | 6.0 | 0.00 | 0.00 | 0.00 | 71 | 1015.1 |
| 20260510071503 | 55 | 149 | 2.0 | 3.0 | 0.00 | 0.00 | 0.00 | 70 | 1015.0 |
| 20260510070503 | 56 | 71 | 2.0 | 8.0 | 0.00 | 0.00 | 0.00 | 69 | 1015.0 |
| 20260510065503 | 56 | 39 | 2.0 | 7.0 | 0.00 | 0.00 | 0.00 | 69 | 1015.1 |
| 20260510065004 | 56 | 141 | 1.0 | 3.0 | 0.00 | 0.00 | 0.00 | 69 | 1015.1 |
| 20260510064503 | 56 | 132 | 0.0 | 3.0 | 0.00 | 0.00 | 0.00 | 68 | 1015.1 |
| 20260510064003 | 56 | 82 | 0.0 | 0.0 | 0.00 | 0.00 | 0.00 | 68 | 1015.1 |
| 20260510063003 | 56 | 213 | 0.0 | 0.0 | 0.00 | 0.00 | 0.00 | 68 | 1015.2 |
| 20260510062503 | 56 | 213 | 1.0 | 2.0 | 0.00 | 0.00 | 0.00 | 68 | 1015.2 |
| 20260510062003 | 56 | 280 | 2.0 | 2.0 | 0.00 | 0.00 | 0.00 | 68 | 1015.3 |
| 20260510061503 | 56 | 181 | 1.0 | 3.0 | 0.00 | 0.00 | 0.00 | 68 | 1015.3 |
| 20260510060503 | 56 | 265 | 2.0 | 3.0 | 0.00 | 0.00 | 0.00 | 67 | 1015.3 |
| 20260510060003 | 56 | 300 | 1.0 | 3.0 | 0.00 | 0.00 | 0.00 | 67 | 1015.3 |
| 20260510055503 | 56 | 251 | 0.0 | 2.0 | 0.00 | 0.00 | 0.00 | 66 | 1015.4 |
| 20260510055003 | 56 | 325 | 1.0 | 3.0 | 0.00 | 0.00 | 0.00 | 66 | 1015.3 |
| 20260510054504 | 56 | 313 | 3.0 | 5.0 | 0.00 | 0.00 | 0.00 | 67 | 1015.4 |
| 20260510054004 | 56 | 304 | 3.0 | 3.0 | 0.00 | 0.00 | 0.00 | 67 | 1015.3 |
| 20260510053503 | 56 | 271 | 3.0 | 5.0 | 0.00 | 0.00 | 0.00 | 67 | 1015.3 |
| 20260510053003 | 56 | 291 | 3.0 | 3.0 | 0.00 | 0.00 | 0.00 | 67 | 1015.3 |
| 20260510052503 | 55 | 301 | 2.0 | 3.0 | 0.00 | 0.00 | 0.00 | 68 | 1015.4 |
| 20260510052004 | 56 | 280 | 3.0 | 3.0 | 0.00 | 0.00 | 0.00 | 67 | 1015.5 |
| 20260510051003 | 56 | 321 | 3.0 | 3.0 | 0.00 | 0.00 | 0.00 | 67 | 1015.4 |
| 20260510050503 | 56 | 280 | 6.0 | 7.0 | 0.00 | 0.00 | 0.00 | 67 | 1015.5 |
| 20260510050003 | 56 | 232 | 5.0 | 5.0 | 0.00 | 0.00 | 0.00 | 66 | 1015.4 |
| 20260510045503 | 56 | 276 | 2.0 | 3.0 | 0.00 | 0.00 | 0.00 | 66 | 1015.4 |
| 20260510043503 | 57 | 257 | 4.0 | 5.0 | 0.00 | 0.00 | 0.00 | 65 | 1015.3 |
| 20260510043003 | 57 | 270 | 1.0 | 5.0 | 0.00 | 0.00 | 0.00 | 65 | 1015.4 |
| 20260510042003 | 56 | 298 | 3.0 | 5.0 | 0.00 | 0.00 | 0.00 | 65 | 1015.4 |
| 20260510040504 | 57 | 246 | 3.0 | 5.0 | 0.00 | 0.00 | 0.00 | 64 | 1015.3 |
| 20260510040004 | 57 | 225 | 0.0 | 2.0 | 0.00 | 0.00 | 0.00 | 64 | 1015.3 |
| 20260510035503 | 57 | 234 | 3.0 | 6.0 | 0.00 | 0.00 | 0.00 | 64 | 1015.4 |
| 20260510035003 | 57 | 273 | 3.0 | 3.0 | 0.00 | 0.00 | 0.00 | 63 | 1015.3 |
| 20260510034503 | 58 | 256 | 3.0 | 5.0 | 0.00 | 0.00 | 0.00 | 63 | 1015.3 |
| 20260510034003 | 58 | 277 | 0.0 | 0.0 | 0.00 | 0.00 | 0.00 | 62 | 1015.3 |
| 20260510033503 | 58 | 277 | 0.0 | 0.0 | 0.00 | 0.00 | 0.00 | 61 | 1015.2 |
| 20260510032503 | 58 | 277 | 1.0 | 5.0 | 0.00 | 0.00 | 0.00 | 61 | 1015.1 |
| 20260510032003 | 58 | 301 | 4.0 | 5.0 | 0.00 | 0.00 | 0.00 | 61 | 1015.1 |
| 20260510031503 | 58 | 288 | 2.0 | 3.0 | 0.00 | 0.00 | 0.00 | 61 | 1015.1 |
| 20260510031003 | 59 | 221 | 5.0 | 5.0 | 0.00 | 0.00 | 0.00 | 60 | 1015.1 |
| 20260510030503 | 59 | 278 | 4.0 | 5.0 | 0.00 | 0.00 | 0.00 | 60 | 1014.9 |
| 20260510030003 | 59 | 240 | 2.0 | 5.0 | 0.00 | 0.00 | 0.00 | 59 | 1015.0 |
| 20260510025503 | 59 | 160 | 0.0 | 0.0 | 0.00 | 0.00 | 0.00 | 59 | 1015.0 |
| 20260510024503 | 60 | 160 | 0.0 | 0.0 | 0.00 | 0.00 | 0.00 | 58 | 1014.9 |
| 20260510024003 | 60 | 160 | 0.0 | 0.0 | 0.00 | 0.00 | 0.00 | 57 | 1014.7 |
| 20260510023504 | 61 | 160 | 0.0 | 0.0 | 0.00 | 0.00 | 0.00 | 56 | 1014.7 |
| 20260510023003 | 61 | 160 | 0.0 | 0.0 | 0.00 | 0.00 | 0.00 | 56 | 1014.6 |
| 20260510022503 | 61 | 160 | 0.0 | 1.0 | 0.00 | 0.00 | 0.00 | 56 | 1014.6 |
| 20260510022003 | 61 | 211 | 2.0 | 5.0 | 0.00 | 0.00 | 0.00 | 55 | 1014.5 |
| 20260510021504 | 62 | 198 | 5.0 | 5.0 | 0.00 | 0.00 | 0.00 | 54 | 1014.4 |
| 20260510021004 | 62 | 183 | 2.0 | 3.0 | 0.00 | 0.00 | 0.00 | 53 | 1014.3 |
| 20260510020504 | 61 | 114 | 2.0 | 6.0 | 0.00 | 0.00 | 0.00 | 54 | 1014.3 |
| 20260510020004 | 61 | 7 | 3.0 | 5.0 | 0.00 | 0.00 | 0.00 | 54 | 1014.3 |
| 20260510015004 | 61 | 298 | 0.0 | 0.0 | 0.00 | 0.00 | 0.00 | 55 | 1014.2 |
| 20260510014503 | 61 | 298 | 0.0 | 0.0 | 0.00 | 0.00 | 0.00 | 55 | 1014.1 |
| 20260510013504 | 62 | 298 | 0.0 | 0.0 | 0.00 | 0.00 | 0.00 | 54 | 1013.9 |
| 20260510013004 | 62 | 298 | 0.0 | 0.0 | 0.00 | 0.00 | 0.00 | 54 | 1013.8 |
| 20260510012503 | 62 | 298 | 0.0 | 0.0 | 0.00 | 0.00 | 0.00 | 53 | 1013.6 |
| 20260510012004 | 62 | 298 | 0.0 | 0.0 | 0.00 | 0.00 | 0.00 | 53 | 1013.6 |
| 20260510011503 | 63 | 298 | 0.0 | 0.0 | 0.00 | 0.00 | 0.00 | 52 | 1013.6 |
| 20260510011004 | 63 | 298 | 0.0 | 0.0 | 0.00 | 0.00 | 0.00 | 51 | 1013.5 |
| 20260510010004 | 63 | 298 | 0.0 | 0.0 | 0.00 | 0.00 | 0.00 | 50 | 1013.4 |
| 20260510005503 | 63 | 272 | 0.0 | 6.0 | 0.00 | 0.00 | 0.00 | 51 | 1013.4 |
| 20260510005003 | 63 | 354 | 0.0 | 2.0 | 0.00 | 0.00 | 0.00 | 49 | 1013.3 |
| 20260510004004 | 63 | 316 | 1.0 | 5.0 | 0.00 | 0.00 | 0.00 | 51 | 1013.2 |
| 20260510003004 | 64 | 211 | 2.0 | 3.0 | 0.00 | 0.00 | 0.00 | 52 | 1013.3 |
| 20260510002504 | 64 | 196 | 0.0 | 0.0 | 0.00 | 0.00 | 0.00 | 50 | 1013.3 |
| 20260510001504 | 65 | 196 | 1.0 | 5.0 | 0.00 | 0.00 | 0.00 | 50 | 1013.2 |
| 20260510001004 | 65 | 208 | 0.0 | 2.0 | 0.00 | 0.00 | 0.00 | 49 | 1013.0 |
| 20260510000503 | 66 | 189 | 0.0 | 0.0 | 0.00 | 0.00 | 0.00 | 48 | 1013.0 |
| 20260510000004 | 66 | 240 | 1.0 | 2.0 | 0.00 | 0.00 | 0.00 | 47 | 1012.8 |
| 20260509235504 | 66 | 299 | 0.0 | 0.0 | 0.00 | 0.00 | 0.00 | 47 | 1012.6 |
| 20260509235003 | 67 | 299 | 0.0 | 0.0 | 0.00 | 0.00 | 0.00 | 45 | 1012.6 |
| 20260509234503 | 67 | 299 | 0.0 | 0.0 | 0.00 | 0.00 | 0.00 | 45 | 1012.5 |
| 20260509234004 | 67 | 299 | 2.0 | 3.0 | 0.00 | 0.00 | 0.00 | 44 | 1012.5 |
| 20260509233504 | 67 | 337 | 1.0 | 5.0 | 0.00 | 0.00 | 0.00 | 44 | 1012.4 |
| 20260509233004 | 67 | 340 | 3.0 | 7.0 | 0.00 | 0.00 | 0.00 | 43 | 1012.4 |
| 20260509232503 | 68 | 334 | 1.0 | 6.0 | 0.00 | 0.00 | 0.00 | 43 | 1012.4 |
| 20260509232003 | 68 | 189 | 3.0 | 5.0 | 0.00 | 0.00 | 0.00 | 42 | 1012.3 |
| 20260509231503 | 68 | 282 | 2.0 | 10.0 | 0.00 | 0.00 | 0.00 | 42 | 1012.4 |
| 20260509230504 | 69 | 324 | 4.0 | 7.0 | 0.00 | 0.00 | 0.00 | 40 | 1012.1 |
| 20260509230003 | 69 | 237 | 1.0 | 7.0 | 0.00 | 0.00 | 0.00 | 40 | 1012.1 |
| 20260509225504 | 69 | 219 | 3.0 | 8.0 | 0.00 | 0.00 | 0.00 | 40 | 1012.0 |
| 20260509225003 | 69 | 265 | 5.0 | 7.0 | 0.00 | 0.00 | 0.00 | 40 | 1012.0 |
| 20260509224004 | 69 | 217 | 4.0 | 7.0 | 0.00 | 0.00 | 0.00 | 40 | 1012.1 |
| 20260509223503 | 69 | 223 | 6.0 | 10.0 | 0.00 | 0.00 | 0.00 | 40 | 1012.0 |
| 20260509222504 | 69 | 194 | 7.0 | 13.0 | 0.00 | 0.00 | 0.00 | 40 | 1012.0 |
| 20260509222004 | 69 | 90 | 0.0 | 3.0 | 0.00 | 0.00 | 0.00 | 42 | 1012.0 |
| 20260509221004 | 70 | 80 | 1.0 | 5.0 | 0.00 | 0.00 | 0.00 | 42 | 1012.0 |
| 20260509220504 | 70 | 201 | 2.0 | 7.0 | 0.00 | 0.00 | 0.00 | 41 | 1011.9 |
| 20260509220004 | 70 | 23 | 6.0 | 8.0 | 0.00 | 0.00 | 0.00 | 41 | 1012.0 |
| 20260509215504 | 70 | 216 | 2.0 | 5.0 | 0.00 | 0.00 | 0.00 | 43 | 1011.9 |
| 20260509215004 | 70 | 262 | 3.0 | 7.0 | 0.00 | 0.00 | 0.00 | 42 | 1011.8 |
| 20260509214504 | 70 | 273 | 8.0 | 15.0 | 0.00 | 0.00 | 0.00 | 41 | 1011.8 |
| 20260509213503 | 71 | 215 | 5.0 | 7.0 | 0.00 | 0.00 | 0.00 | 41 | 1011.8 |
| 20260509213005 | 71 | 206 | 5.0 | 7.0 | 0.00 | 0.00 | 0.00 | 41 | 1011.7 |
| 20260509212504 | 71 | 145 | 5.0 | 8.0 | 0.00 | 0.00 | 0.00 | 40 | 1011.6 |
| 20260509212003 | 71 | 200 | 5.0 | 7.0 | 0.00 | 0.00 | 0.00 | 40 | 1011.5 |
| 20260509211003 | 72 | 283 | 3.0 | 8.0 | 0.00 | 0.00 | 0.00 | 40 | 1011.5 |
| 20260509210503 | 72 | 240 | 3.0 | 13.0 | 0.00 | 0.00 | 0.00 | 39 | 1011.4 |
| 20260509205503 | 72 | 201 | 7.0 | 15.0 | 0.00 | 0.00 | 0.00 | 39 | 1011.4 |
| 20260509204504 | 72 | 221 | 13.0 | 15.0 | 0.00 | 0.00 | 0.00 | 38 | 1011.3 |
| 20260509204004 | 72 | 152 | 5.0 | 10.0 | 0.00 | 0.00 | 0.00 | 39 | 1011.2 |
| 20260509203504 | 72 | 297 | 9.0 | 17.0 | 0.00 | 0.00 | 0.00 | 37 | 1011.3 |
| 20260509203004 | 72 | 157 | 13.0 | 17.0 | 0.00 | 0.00 | 0.00 | 37 | 1011.3 |
| 20260509202504 | 72 | 260 | 7.0 | 12.0 | 0.00 | 0.00 | 0.00 | 38 | 1011.3 |
| 20260509202004 | 72 | 199 | 10.0 | 21.0 | 0.00 | 0.00 | 0.00 | 40 | 1011.3 |
| 20260509201503 | 71 | 223 | 12.0 | 21.0 | 0.00 | 0.00 | 0.00 | 41 | 1011.3 |
| 20260509201004 | 71 | 215 | 10.0 | 14.0 | 0.00 | 0.00 | 0.00 | 41 | 1011.2 |
| 20260509200003 | 71 | 271 | 7.0 | 14.0 | 0.00 | 0.00 | 0.00 | 39 | 1011.3 |
| 20260509195504 | 71 | 256 | 7.0 | 12.0 | 0.00 | 0.00 | 0.00 | 40 | 1011.4 |
| 20260509195004 | 71 | 193 | 12.0 | 17.0 | 0.00 | 0.00 | 0.00 | 41 | 1011.3 |
| 20260509194504 | 71 | 221 | 10.0 | 21.0 | 0.00 | 0.00 | 0.00 | 40 | 1011.4 |
| 20260509194004 | 71 | 248 | 11.0 | 14.0 | 0.00 | 0.00 | 0.00 | 41 | 1011.3 |
| 20260509193004 | 71 | 219 | 10.0 | 13.0 | 0.00 | 0.00 | 0.00 | 42 | 1011.2 |
| 20260509192503 | 70 | 207 | 9.0 | 14.0 | 0.00 | 0.00 | 0.00 | 44 | 1011.3 |
| 20260509192004 | 70 | 197 | 5.0 | 7.0 | 0.00 | 0.00 | 0.00 | 44 | 1011.4 |
| 20260509191504 | 70 | 231 | 6.0 | 7.0 | 0.00 | 0.00 | 0.00 | 43 | 1011.5 |
| 20260509191004 | 70 | 248 | 3.0 | 8.0 | 0.00 | 0.00 | 0.00 | 43 | 1011.6 |
| 20260509190504 | 70 | 331 | 5.0 | 8.0 | 0.00 | 0.00 | 0.00 | 42 | 1011.5 |
| 20260509184504 | 70 | 249 | 7.0 | 13.0 | 0.00 | 0.00 | 0.00 | 42 | 1011.6 |
| 20260509184004 | 70 | 233 | 9.0 | 13.0 | 0.00 | 0.00 | 0.00 | 42 | 1011.6 |
| 20260509183504 | 70 | 198 | 7.0 | 14.0 | 0.00 | 0.00 | 0.00 | 44 | 1011.6 |
| 20260509182504 | 70 | 239 | 12.0 | 13.0 | 0.00 | 0.00 | 0.00 | 44 | 1011.9 |
| 20260509182004 | 69 | 207 | 5.0 | 9.0 | 0.00 | 0.00 | 0.00 | 51 | 1012.0 |
| 20260509181503 | 69 | 169 | 2.0 | 5.0 | 0.00 | 0.00 | 0.00 | 47 | 1012.1 |
| 20260509181004 | 69 | 199 | 0.0 | 2.0 | 0.00 | 0.00 | 0.00 | 49 | 1012.2 |
| 20260509180504 | 69 | 28 | 0.0 | 3.0 | 0.00 | 0.00 | 0.00 | 50 | 1012.2 |
| 20260509180004 | 69 | 342 | 1.0 | 6.0 | 0.00 | 0.00 | 0.00 | 48 | 1012.2 |
| 20260509175504 | 69 | 76 | 5.0 | 8.0 | 0.00 | 0.00 | 0.00 | 48 | 1012.2 |
| 20260509175003 | 69 | 119 | 3.0 | 16.0 | 0.00 | 0.00 | 0.00 | 51 | 1012.3 |
| 20260509174503 | 69 | 157 | 5.0 | 10.0 | 0.00 | 0.00 | 0.00 | 52 | 1012.4 |
| 20260509174003 | 68 | 200 | 5.0 | 8.0 | 0.00 | 0.00 | 0.00 | 50 | 1012.4 |
| 20260509173003 | 67 | 74 | 3.0 | 9.0 | 0.00 | 0.00 | 0.00 | 50 | 1012.5 |
| 20260509172502 | 68 | 351 | 4.0 | 7.0 | 0.00 | 0.00 | 0.00 | 52 | 1012.6 |
| 20260509172002 | 69 | 72 | 5.0 | 5.0 | 0.00 | 0.00 | 0.00 | 52 | 1012.7 |
| 20260509171502 | 69 | 44 | 0.0 | 0.0 | 0.00 | 0.00 | 0.00 | 54 | 1012.6 |
| 20260509171003 | 68 | 44 | 0.0 | 8.0 | 0.00 | 0.00 | 0.00 | 58 | 1012.7 |
| 20260509170502 | 67 | 125 | 4.0 | 7.0 | 0.00 | 0.00 | 0.00 | 56 | 1012.6 |
| 20260509170003 | 67 | 23 | 2.0 | 5.0 | 0.00 | 0.00 | 0.00 | 59 | 1013.0 |
| 20260509165503 | 67 | 120 | 3.0 | 6.0 | 0.00 | 0.00 | 0.00 | 57 | 1013.0 |
| 20260509165002 | 67 | 39 | 2.0 | 5.0 | 0.00 | 0.00 | 0.00 | 56 | 1013.1 |
| 20260509164502 | 67 | 72 | 2.0 | 3.0 | 0.00 | 0.00 | 0.00 | 57 | 1013.2 |
| 20260509164003 | 67 | 11 | 4.0 | 5.0 | 0.00 | 0.00 | 0.00 | 56 | 1013.3 |
| 20260509163002 | 67 | 323 | 6.0 | 7.0 | 0.00 | 0.00 | 0.00 | 56 | 1013.3 |
| 20260509162502 | 67 | 357 | 10.0 | 12.0 | 0.00 | 0.00 | 0.00 | 53 | 1013.3 |
| 20260509162002 | 67 | 21 | 3.0 | 6.0 | 0.00 | 0.00 | 0.00 | 57 | 1013.3 |
| 20260509161503 | 67 | 66 | 5.0 | 7.0 | 0.00 | 0.00 | 0.00 | 54 | 1013.3 |
| 20260509161003 | 67 | 184 | 4.0 | 7.0 | 0.00 | 0.00 | 0.00 | 56 | 1013.2 |
| 20260509160502 | 67 | 127 | 3.0 | 7.0 | 0.00 | 0.00 | 0.00 | 58 | 1013.2 |
| 20260509160003 | 67 | 124 | 3.0 | 7.0 | 0.00 | 0.00 | 0.00 | 58 | 1013.2 |
| 20260509155503 | 67 | 44 | 3.0 | 6.0 | 0.00 | 0.00 | 0.00 | 56 | 1013.3 |
| 20260509155003 | 66 | 131 | 4.0 | 8.0 | 0.00 | 0.00 | 0.00 | 57 | 1013.3 |
| 20260509154503 | 66 | 54 | 5.0 | 10.0 | 0.00 | 0.00 | 0.00 | 56 | 1013.2 |
| 20260509154002 | 66 | 61 | 4.0 | 9.0 | 0.00 | 0.00 | 0.00 | 57 | 1013.1 |
| 20260509153503 | 66 | 53 | 3.0 | 9.0 | 0.00 | 0.00 | 0.00 | 57 | 1013.3 |
| 20260509153003 | 65 | 347 | 3.0 | 9.0 | 0.00 | 0.00 | 0.00 | 56 | 1013.5 |